BAW784 EGLL-ENGM

Flight info

Callsign BAW784
Flight time 2h 0m
Altitude 37000
Route BPK Q295 PAAVO M604 LARGA DCT INBOB M604 SVA M609 RIPAM
Aircraft A320/M-SDE3FGIJ1KRWXY/SB1

Departure

Time 2026-05-04 20:42
Airport London Heathrow Airport (EGLL)

Arrival

Time 2026-05-04 22:42
Airport Oslo-Gardermoen International Airport (ENGM)
Time Latitude Longitude Altitude Speed Heading
2026-05-04 19:43 51.47232 -0.48588 90 ft 0 kts 270°
2026-05-04 20:31 51.47232 -0.48576 73 ft 4 kts 269°
2026-05-04 20:32 51.47233 -0.48533 88 ft 4 kts 263°
2026-05-04 20:32 51.47239 -0.48492 90 ft 4 kts 233°
2026-05-04 20:32 51.47251 -0.48476 90 ft 0 kts 180°
2026-05-04 20:35 51.47225 -0.48476 88 ft 8 kts 180°
2026-05-04 20:35 51.47152 -0.48475 87 ft 12 kts 179°
2026-05-04 20:36 51.47043 -0.48474 87 ft 17 kts 180°
2026-05-04 20:36 51.46929 -0.48473 87 ft 12 kts 180°
2026-05-04 20:36 51.46855 -0.48472 87 ft 8 kts 179°
2026-05-04 20:36 51.46825 -0.48472 88 ft 0 kts 179°
2026-05-04 20:37 51.46823 -0.48472 88 ft 0 kts 179°
2026-05-04 20:38 51.46820 -0.48472 87 ft 2 kts 179°
2026-05-04 20:38 51.46794 -0.48471 89 ft 5 kts 179°
2026-05-04 20:38 51.46750 -0.48495 90 ft 9 kts 229°
2026-05-04 20:39 51.46741 -0.48626 87 ft 14 kts 270°
2026-05-04 20:39 51.46701 -0.48751 91 ft 14 kts 188°
2026-05-04 20:39 51.46636 -0.48752 87 ft 7 kts 185°
2026-05-04 20:39 51.46599 -0.48770 90 ft 0 kts 200°
2026-05-04 20:40 51.46589 -0.48777 88 ft 3 kts 200°
2026-05-04 20:40 51.46539 -0.48790 87 ft 11 kts 176°
2026-05-04 20:40 51.46478 -0.48692 89 ft 15 kts 99°
2026-05-04 20:40 51.46476 -0.48622 88 ft 1 kts 89°
2026-05-04 20:41 51.46476 -0.48618 90 ft 0 kts 89°
2026-05-04 20:41 51.46476 -0.48615 90 ft 1 kts 89°
2026-05-04 20:41 51.46478 -0.48501 88 ft 36 kts 88°
2026-05-04 20:41 51.46481 -0.47728 86 ft 100 kts 89°
2026-05-04 20:42 51.46484 -0.46343 91 ft 146 kts 90°
2026-05-04 20:42 51.46487 -0.44540 310 ft 167 kts 88°
2026-05-04 20:42 51.46491 -0.42680 999 ft 166 kts 87°
2026-05-04 20:42 51.46755 -0.40919 1652 ft 163 kts 57°
2026-05-04 20:43 51.47463 -0.39504 2216 ft 163 kts 50°
2026-05-04 20:43 51.48197 -0.38081 2688 ft 171 kts 50°
2026-05-04 20:43 51.48967 -0.36583 3089 ft 181 kts 50°
2026-05-04 20:43 51.49784 -0.34990 3498 ft 190 kts 50°
2026-05-04 20:44 51.50643 -0.33315 3969 ft 198 kts 50°
2026-05-04 20:44 51.51551 -0.31527 4361 ft 216 kts 50°
2026-05-04 20:44 51.52524 -0.29551 4832 ft 234 kts 51°
2026-05-04 20:44 51.53475 -0.27319 5312 ft 252 kts 64°
2026-05-04 20:45 51.54076 -0.24550 5777 ft 271 kts 70°
2026-05-04 20:45 51.54923 -0.21834 6468 ft 276 kts 52°
2026-05-04 20:45 51.56355 -0.19824 7225 ft 276 kts 27°
2026-05-04 20:45 51.58097 -0.18431 7953 ft 283 kts 23°
2026-05-04 20:46 51.59956 -0.17383 8750 ft 284 kts 13°
2026-05-04 20:46 51.61887 -0.16596 9536 ft 288 kts 13°
2026-05-04 20:46 51.63840 -0.15764 10252 ft 293 kts 14°
2026-05-04 20:46 51.65874 -0.14868 10537 ft 314 kts 14°
2026-05-04 20:47 51.68063 -0.13874 10696 ft 337 kts 18°
2026-05-04 20:47 51.70238 -0.12292 11146 ft 348 kts 30°
2026-05-04 20:47 51.72227 -0.10049 11772 ft 352 kts 40°
2026-05-04 20:47 51.73910 -0.07227 12415 ft 355 kts 52°
2026-05-04 20:48 51.75171 -0.03783 13065 ft 359 kts 67°
2026-05-04 20:48 51.75887 0.00082 13715 ft 362 kts 81°
2026-05-04 20:48 51.76222 0.04115 14318 ft 364 kts 83°
2026-05-04 20:48 51.76551 0.08189 14890 ft 368 kts 83°
2026-05-04 20:49 51.76883 0.12295 15437 ft 371 kts 83°
2026-05-04 20:49 51.77220 0.16450 15966 ft 375 kts 83°
2026-05-04 20:49 51.77562 0.20645 16499 ft 378 kts 83°
2026-05-04 20:49 51.77908 0.24876 17033 ft 382 kts 83°
2026-05-04 20:50 51.78256 0.29146 17568 ft 385 kts 83°
2026-05-04 20:50 51.78606 0.33452 18126 ft 388 kts 83°
2026-05-04 20:50 51.78957 0.37802 18636 ft 392 kts 83°
2026-05-04 20:50 51.79308 0.42178 19139 ft 394 kts 83°
2026-05-04 20:51 51.79659 0.46593 19636 ft 397 kts 84°
2026-05-04 20:51 51.80010 0.51032 20149 ft 400 kts 84°
2026-05-04 20:51 51.80361 0.55504 20623 ft 403 kts 84°
2026-05-04 20:51 51.80712 0.60009 21096 ft 406 kts 84°
2026-05-04 20:52 51.81171 0.64520 21541 ft 409 kts 77°
2026-05-04 20:52 51.82072 0.68903 21975 ft 413 kts 68°
2026-05-04 20:52 51.83198 0.73206 22399 ft 416 kts 68°
2026-05-04 20:52 51.84324 0.77533 22824 ft 419 kts 68°
2026-05-04 20:53 51.85506 0.81798 23245 ft 423 kts 63°
2026-05-04 20:53 51.87094 0.85818 23644 ft 427 kts 52°
2026-05-04 20:53 51.89095 0.89393 23996 ft 430 kts 43°
2026-05-04 20:53 51.91328 0.92636 24346 ft 433 kts 42°
2026-05-04 20:54 51.93576 0.95899 24711 ft 435 kts 42°
2026-05-04 20:54 51.95840 0.99197 25069 ft 438 kts 42°
2026-05-04 20:54 51.98112 1.02516 25415 ft 440 kts 42°
2026-05-04 20:54 52.00394 1.05859 25756 ft 443 kts 42°
2026-05-04 20:55 52.02685 1.09224 26091 ft 445 kts 42°
2026-05-04 20:55 52.04998 1.12588 26415 ft 448 kts 39°
2026-05-04 20:55 52.07483 1.15678 26763 ft 450 kts 36°
2026-05-04 20:55 52.09996 1.18730 27104 ft 452 kts 36°
2026-05-04 20:56 52.12491 1.21773 27439 ft 455 kts 37°
2026-05-04 20:56 52.14984 1.24967 27785 ft 457 kts 38°
2026-05-04 20:56 52.17471 1.28320 28134 ft 460 kts 40°
2026-05-04 20:56 52.19885 1.31675 28467 ft 462 kts 40°
2026-05-04 20:57 52.22325 1.35103 28786 ft 464 kts 40°
2026-05-04 20:57 52.24777 1.38529 29229 ft 464 kts 40°
2026-05-04 20:57 52.27236 1.41925 29704 ft 463 kts 39°
2026-05-04 20:57 52.29699 1.45299 30166 ft 462 kts 39°
2026-05-04 20:58 52.32172 1.48669 30561 ft 461 kts 39°
2026-05-04 20:58 52.34546 1.52187 30973 ft 460 kts 45°
2026-05-04 20:58 52.36033 1.54668 31252 ft 459 kts 45°
2026-05-04 20:58 52.38261 1.58395 31683 ft 458 kts 45°
2026-05-04 20:59 52.40483 1.62124 32120 ft 457 kts 45°
2026-05-04 20:59 52.42692 1.65847 32564 ft 455 kts 45°
2026-05-04 20:59 52.44900 1.69571 33006 ft 454 kts 45°
2026-05-04 20:59 52.47095 1.73276 33459 ft 452 kts 45°
2026-05-04 21:00 52.49280 1.76970 33909 ft 450 kts 45°
2026-05-04 21:00 52.51455 1.80654 34294 ft 449 kts 45°
2026-05-04 21:00 52.53623 1.84343 34614 ft 448 kts 45°
2026-05-04 21:00 52.55789 1.88032 34910 ft 448 kts 45°
2026-05-04 21:01 52.57954 1.91719 35196 ft 448 kts 45°
2026-05-04 21:01 52.60119 1.95408 35470 ft 448 kts 45°
2026-05-04 21:01 52.62286 1.99101 35740 ft 449 kts 45°
2026-05-04 21:01 52.64450 2.02798 36005 ft 449 kts 45°
2026-05-04 21:02 52.66617 2.06501 36271 ft 449 kts 45°
2026-05-04 21:02 52.68784 2.10203 36533 ft 449 kts 45°
2026-05-04 21:02 52.70950 2.13916 36783 ft 449 kts 45°
2026-05-04 21:02 52.73084 2.17587 37003 ft 449 kts 46°
2026-05-04 21:03 52.77444 2.25105 37063 ft 458 kts 45°
2026-05-04 21:03 52.81880 2.32774 37063 ft 462 kts 46°
2026-05-04 21:04 52.86314 2.40463 37061 ft 462 kts 46°
2026-05-04 21:04 52.90748 2.48185 37063 ft 462 kts 46°
2026-05-04 21:05 52.95174 2.55916 37064 ft 462 kts 46°
2026-05-04 21:05 53.00009 2.62888 37070 ft 460 kts 31°
2026-05-04 21:06 53.05636 2.67747 37071 ft 459 kts 25°
2026-05-04 21:06 53.11358 2.72478 37076 ft 459 kts 25°
2026-05-04 21:07 53.17080 2.77259 37077 ft 460 kts 25°
2026-05-04 21:07 53.22799 2.82041 37079 ft 459 kts 25°
2026-05-04 21:08 53.28515 2.86841 37077 ft 459 kts 25°
2026-05-04 21:08 53.34233 2.91642 37077 ft 459 kts 25°
2026-05-04 21:09 53.39944 2.96440 37073 ft 459 kts 25°
2026-05-04 21:09 53.45616 3.01238 37077 ft 459 kts 25°
2026-05-04 21:10 53.51315 3.06083 37078 ft 459 kts 25°
2026-05-04 21:10 53.57013 3.10933 37079 ft 459 kts 25°
2026-05-04 21:11 53.62701 3.15786 37078 ft 458 kts 25°
2026-05-04 21:11 53.68412 3.20557 37084 ft 457 kts 23°
2026-05-04 21:12 53.74262 3.24780 37086 ft 457 kts 20°
2026-05-04 21:12 53.80162 3.28774 37085 ft 456 kts 20°
2026-05-04 21:13 53.86030 3.32879 37085 ft 456 kts 21°
2026-05-04 21:13 53.91873 3.37089 37086 ft 456 kts 22°
2026-05-04 21:14 53.97705 3.41327 37086 ft 456 kts 22°
2026-05-04 21:14 54.03543 3.45552 37086 ft 456 kts 21°
2026-05-04 21:15 54.09341 3.49745 37086 ft 455 kts 21°
2026-05-04 21:15 54.15173 3.53976 37082 ft 455 kts 21°
2026-05-04 21:16 54.21007 3.58215 37086 ft 455 kts 21°
2026-05-04 21:16 54.26836 3.62476 37080 ft 455 kts 22°
2026-05-04 21:17 54.32629 3.66846 37084 ft 455 kts 24°
2026-05-04 21:17 54.38280 3.71786 37082 ft 456 kts 27°
2026-05-04 21:18 54.43828 3.76934 37081 ft 456 kts 27°
2026-05-04 21:18 54.49432 3.82034 37083 ft 456 kts 26°
2026-05-04 21:19 54.55068 3.87046 37081 ft 455 kts 26°
2026-05-04 21:19 54.60701 3.92067 37077 ft 456 kts 26°
2026-05-04 21:20 54.66293 3.97102 37081 ft 456 kts 26°
2026-05-04 21:20 54.71911 4.02181 37076 ft 456 kts 26°
2026-05-04 21:21 54.77529 4.07280 37074 ft 456 kts 26°
2026-05-04 21:21 54.83148 4.12387 37075 ft 456 kts 26°
2026-05-04 21:22 54.88723 4.17664 37073 ft 457 kts 29°
2026-05-04 21:22 54.94088 4.23605 37071 ft 458 kts 32°
2026-05-04 21:23 54.99376 4.29784 37073 ft 458 kts 32°
2026-05-04 21:23 55.04696 4.35881 37067 ft 458 kts 31°
2026-05-04 21:24 55.10017 4.41857 37064 ft 458 kts 31°
2026-05-04 21:24 55.15379 4.47881 37060 ft 458 kts 31°
2026-05-04 21:25 55.20729 4.53961 37060 ft 458 kts 31°
2026-05-04 21:25 55.26085 4.60079 37057 ft 459 kts 31°
2026-05-04 21:26 55.31439 4.66205 37058 ft 459 kts 31°
2026-05-04 21:26 55.36759 4.72299 37050 ft 460 kts 31°
2026-05-04 21:27 55.42114 4.78451 37052 ft 460 kts 31°
2026-05-04 21:27 55.47475 4.84632 37055 ft 460 kts 31°
2026-05-04 21:28 55.52834 4.90837 37053 ft 461 kts 31°
2026-05-04 21:28 55.58185 4.97062 37051 ft 461 kts 31°
2026-05-04 21:29 55.63546 5.03318 37044 ft 461 kts 31°
2026-05-04 21:29 55.68906 5.09579 37046 ft 462 kts 31°
2026-05-04 21:30 55.74265 5.15871 37046 ft 462 kts 31°
2026-05-04 21:30 55.79622 5.22186 37048 ft 462 kts 31°
2026-05-04 21:31 55.87661 5.31686 37051 ft 463 kts 31°
2026-05-04 21:32 55.93020 5.38060 37047 ft 463 kts 31°
2026-05-04 21:32 55.98375 5.44453 37044 ft 463 kts 31°
2026-05-04 21:33 56.03730 5.50850 37044 ft 463 kts 31°
2026-05-04 21:33 56.09093 5.57272 37041 ft 464 kts 31°
2026-05-04 21:34 56.14415 5.63666 37039 ft 464 kts 31°
2026-05-04 21:34 56.19806 5.70176 37033 ft 464 kts 31°
2026-05-04 21:35 56.25122 5.76628 37038 ft 464 kts 31°
2026-05-04 21:35 56.30481 5.83140 37034 ft 465 kts 31°
2026-05-04 21:36 56.35845 5.89680 37032 ft 465 kts 31°
2026-05-04 21:36 56.41207 5.96250 37026 ft 465 kts 31°
2026-05-04 21:37 56.46568 6.02833 37026 ft 466 kts 31°
2026-05-04 21:37 56.51932 6.09442 37027 ft 466 kts 31°
2026-05-04 21:38 56.57290 6.16075 37024 ft 467 kts 31°
2026-05-04 21:38 56.62654 6.22743 37026 ft 467 kts 31°
2026-05-04 21:39 56.67979 6.29392 37015 ft 468 kts 31°
2026-05-04 21:39 56.73357 6.36107 37007 ft 468 kts 30°
2026-05-04 21:40 56.78729 6.42824 37008 ft 469 kts 31°
2026-05-04 21:40 56.84103 6.49593 37006 ft 469 kts 31°
2026-05-04 21:41 56.89471 6.56398 37005 ft 470 kts 31°
2026-05-04 21:41 56.94855 6.63224 37002 ft 470 kts 31°
2026-05-04 21:42 57.00231 6.70046 37001 ft 470 kts 30°
2026-05-04 21:42 57.05736 6.76359 37001 ft 468 kts 26°
2026-05-04 21:43 57.11442 6.82303 36998 ft 468 kts 25°
2026-05-04 21:43 57.17069 6.88214 36998 ft 469 kts 25°
2026-05-04 21:44 57.22706 6.94338 36999 ft 470 kts 26°
2026-05-04 21:44 57.28329 7.00564 36989 ft 471 kts 26°
2026-05-04 21:45 57.33930 7.06758 36982 ft 471 kts 26°
2026-05-04 21:45 57.39566 7.12973 36979 ft 472 kts 26°
2026-05-04 21:46 57.45212 7.19207 36979 ft 472 kts 26°
2026-05-04 21:46 57.50859 7.25466 36978 ft 473 kts 26°
2026-05-04 21:47 57.56509 7.31768 36973 ft 473 kts 26°
2026-05-04 21:47 57.62121 7.38064 36971 ft 474 kts 26°
2026-05-04 21:48 57.67772 7.44427 36965 ft 474 kts 26°
2026-05-04 21:48 57.72503 7.49767 36963 ft 475 kts 26°
2026-05-04 21:49 57.78134 7.56119 36930 ft 476 kts 26°
2026-05-04 21:49 57.80974 7.59329 36583 ft 476 kts 26°
2026-05-04 21:49 57.83811 7.62550 36227 ft 476 kts 26°
2026-05-04 21:49 57.86649 7.65784 35873 ft 478 kts 26°
2026-05-04 21:50 57.89489 7.69030 35523 ft 479 kts 25°
2026-05-04 21:50 57.92338 7.72290 35177 ft 480 kts 25°
2026-05-04 21:50 57.95193 7.75571 34840 ft 481 kts 25°
2026-05-04 21:50 57.98057 7.78862 34505 ft 482 kts 25°
2026-05-04 21:51 58.00926 7.82155 34173 ft 483 kts 25°
2026-05-04 21:51 58.03806 7.85466 33833 ft 485 kts 25°
2026-05-04 21:51 58.06689 7.88788 33455 ft 486 kts 25°
2026-05-04 21:51 58.09485 7.92291 33083 ft 491 kts 31°
2026-05-04 21:52 58.12205 7.96222 32714 ft 493 kts 32°
2026-05-04 21:52 58.14933 8.00181 32346 ft 493 kts 32°
2026-05-04 21:52 58.17653 8.04141 31986 ft 494 kts 32°
2026-05-04 21:52 58.20378 8.08121 31628 ft 492 kts 32°
2026-05-04 21:53 58.23074 8.12072 31274 ft 490 kts 32°
2026-05-04 21:53 58.25770 8.16027 30925 ft 488 kts 32°
2026-05-04 21:53 58.28452 8.19964 30580 ft 485 kts 32°
2026-05-04 21:53 58.31114 8.23870 30237 ft 483 kts 32°
2026-05-04 21:54 58.33736 8.27717 29889 ft 480 kts 32°
2026-05-04 21:54 58.36378 8.31604 29488 ft 478 kts 32°
2026-05-04 21:54 58.38997 8.35467 29084 ft 475 kts 32°
2026-05-04 21:54 58.41633 8.39361 28686 ft 472 kts 32°
2026-05-04 21:55 58.44219 8.43191 28304 ft 469 kts 32°
2026-05-04 21:55 58.46757 8.46963 27927 ft 467 kts 32°
2026-05-04 21:55 58.49306 8.50765 27547 ft 464 kts 32°
2026-05-04 21:55 58.51850 8.54569 27181 ft 461 kts 32°
2026-05-04 21:56 58.54370 8.58342 26817 ft 459 kts 32°
2026-05-04 21:56 58.56875 8.62101 26455 ft 456 kts 32°
2026-05-04 21:56 58.59373 8.65847 26099 ft 454 kts 32°
2026-05-04 21:56 58.61854 8.69567 25747 ft 452 kts 31°
2026-05-04 21:57 58.64326 8.73280 25400 ft 449 kts 32°
2026-05-04 21:57 58.66790 8.76989 25057 ft 447 kts 32°
2026-05-04 21:57 58.69232 8.80669 24724 ft 445 kts 32°
2026-05-04 21:57 58.71629 8.84284 24387 ft 443 kts 31°
2026-05-04 21:58 58.74048 8.87942 24058 ft 442 kts 31°
2026-05-04 21:58 58.76456 8.91598 23731 ft 440 kts 32°
2026-05-04 21:58 58.78880 8.95293 23394 ft 437 kts 32°
2026-05-04 21:58 58.81261 8.98930 23010 ft 435 kts 32°
2026-05-04 21:59 58.83598 9.02497 22639 ft 433 kts 31°
2026-05-04 21:59 58.85950 9.06095 22254 ft 430 kts 31°
2026-05-04 21:59 58.88291 9.09685 21880 ft 428 kts 31°
2026-05-04 21:59 58.90614 9.13248 21509 ft 426 kts 31°
2026-05-04 22:00 58.92928 9.16804 21141 ft 424 kts 31°
2026-05-04 22:00 58.95230 9.20346 20783 ft 421 kts 31°
2026-05-04 22:00 58.97519 9.23870 20429 ft 419 kts 31°
2026-05-04 22:00 58.99802 9.27396 20075 ft 417 kts 31°
2026-05-04 22:01 59.02062 9.30899 19720 ft 415 kts 31°
2026-05-04 22:01 59.04309 9.34393 19382 ft 413 kts 31°
2026-05-04 22:01 59.06548 9.37880 19036 ft 411 kts 31°
2026-05-04 22:01 59.08776 9.41345 18704 ft 409 kts 31°
2026-05-04 22:02 59.10996 9.44802 18368 ft 407 kts 31°
2026-05-04 22:02 59.13200 9.48238 18023 ft 405 kts 31°
2026-05-04 22:02 59.15393 9.51669 17639 ft 403 kts 31°
2026-05-04 22:02 59.17574 9.55091 17261 ft 401 kts 31°
2026-05-04 22:03 59.19795 9.58305 16882 ft 393 kts 25°
2026-05-04 22:03 59.22078 9.61215 16516 ft 391 kts 25°
2026-05-04 22:03 59.24347 9.64121 16183 ft 389 kts 25°
2026-05-04 22:03 59.26601 9.67017 15975 ft 385 kts 25°
2026-05-04 22:04 59.28802 9.69864 15763 ft 374 kts 25°
2026-05-04 22:04 59.30941 9.72641 15557 ft 364 kts 25°
2026-05-04 22:04 59.33015 9.75408 15353 ft 360 kts 29°
2026-05-04 22:04 59.34950 9.78466 15149 ft 354 kts 31°
2026-05-04 22:05 59.36843 9.81483 14944 ft 348 kts 31°
2026-05-04 22:05 59.38696 9.84427 14744 ft 346 kts 30°
2026-05-04 22:05 59.40572 9.87401 14559 ft 345 kts 30°
2026-05-04 22:05 59.42433 9.90358 14351 ft 343 kts 30°
2026-05-04 22:06 59.44285 9.93311 14158 ft 342 kts 31°
2026-05-04 22:06 59.46126 9.96252 13966 ft 341 kts 31°
2026-05-04 22:06 59.47965 9.99195 13771 ft 341 kts 31°
2026-05-04 22:06 59.49797 10.02135 13572 ft 339 kts 31°
2026-05-04 22:07 59.51612 10.05061 13333 ft 337 kts 31°
2026-05-04 22:07 59.53424 10.07980 13124 ft 335 kts 31°
2026-05-04 22:07 59.55223 10.10880 12916 ft 333 kts 31°
2026-05-04 22:07 59.57013 10.13773 12705 ft 331 kts 31°
2026-05-04 22:08 59.58788 10.16651 12476 ft 330 kts 31°
2026-05-04 22:08 59.60532 10.19473 12282 ft 328 kts 32°
2026-05-04 22:08 59.62294 10.22325 12061 ft 326 kts 32°
2026-05-04 22:08 59.64041 10.25154 11860 ft 324 kts 32°
2026-05-04 22:09 59.65780 10.27968 11583 ft 322 kts 32°
2026-05-04 22:09 59.67510 10.30782 11266 ft 319 kts 33°
2026-05-04 22:09 59.69221 10.33574 10963 ft 317 kts 33°
2026-05-04 22:09 59.70916 10.36344 10654 ft 315 kts 33°
2026-05-04 22:10 59.72599 10.39096 10358 ft 313 kts 33°
2026-05-04 22:10 59.74275 10.41838 10039 ft 311 kts 34°
2026-05-04 22:10 59.75932 10.44555 9756 ft 308 kts 34°
2026-05-04 22:10 59.77573 10.47263 9432 ft 304 kts 34°
2026-05-04 22:11 59.79164 10.49903 9097 ft 292 kts 35°
2026-05-04 22:11 59.80692 10.52442 8774 ft 282 kts 35°
2026-05-04 22:11 59.82172 10.54902 8451 ft 272 kts 35°
2026-05-04 22:11 59.83600 10.57274 8133 ft 264 kts 35°
2026-05-04 22:12 59.84998 10.59591 7814 ft 261 kts 35°
2026-05-04 22:12 59.86371 10.61864 7508 ft 261 kts 35°
2026-05-04 22:12 59.87769 10.64182 7201 ft 261 kts 36°
2026-05-04 22:12 59.89165 10.66505 6892 ft 262 kts 36°
2026-05-04 22:13 59.90520 10.68765 6595 ft 262 kts 36°
2026-05-04 22:13 59.91917 10.71102 6319 ft 261 kts 36°
2026-05-04 22:13 59.93288 10.73404 6095 ft 254 kts 37°
2026-05-04 22:13 59.94623 10.75649 5846 ft 247 kts 36°
2026-05-04 22:14 59.95913 10.77842 5620 ft 240 kts 40°
2026-05-04 22:14 59.96932 10.80438 5419 ft 237 kts 59°
2026-05-04 22:14 59.97509 10.83481 5202 ft 233 kts 76°
2026-05-04 22:14 59.97698 10.86652 4990 ft 227 kts 82°
2026-05-04 22:15 59.97850 10.89739 4818 ft 219 kts 82°
2026-05-04 22:15 59.97999 10.92675 4661 ft 211 kts 82°
2026-05-04 22:15 59.98160 10.95541 4535 ft 205 kts 76°
2026-05-04 22:15 59.98664 10.98073 4376 ft 190 kts 52°
2026-05-04 22:16 59.99521 10.99915 4264 ft 175 kts 31°
2026-05-04 22:16 60.00586 11.00897 4206 ft 167 kts 14°
2026-05-04 22:16 60.01691 11.01614 4031 ft 166 kts 12°
2026-05-04 22:16 60.02792 11.02274 3828 ft 164 kts 11°
2026-05-04 22:17 60.03890 11.02913 3610 ft 164 kts 11°
2026-05-04 22:17 60.04979 11.03540 3387 ft 163 kts 11°
2026-05-04 22:17 60.06046 11.04154 3161 ft 155 kts 11°
2026-05-04 22:17 60.07041 11.04727 2970 ft 146 kts 10°
2026-05-04 22:18 60.07999 11.05275 2767 ft 142 kts 10°
2026-05-04 22:18 60.08945 11.05816 2571 ft 141 kts 10°
2026-05-04 22:18 60.09890 11.06358 2373 ft 141 kts 10°
2026-05-04 22:18 60.10835 11.06900 2176 ft 141 kts 11°
2026-05-04 22:19 60.11779 11.07441 1971 ft 141 kts 11°
2026-05-04 22:19 60.12723 11.07984 1783 ft 141 kts 10°
2026-05-04 22:19 60.13671 11.08529 1565 ft 142 kts 11°
2026-05-04 22:19 60.14624 11.09077 1355 ft 143 kts 12°
2026-05-04 22:20 60.15583 11.09643 1141 ft 143 kts 13°
2026-05-04 22:20 60.16530 11.10167 945 ft 144 kts 14°
2026-05-04 22:20 60.17486 11.10727 751 ft 142 kts 14°
2026-05-04 22:20 60.18377 11.11277 685 ft 121 kts 16°
2026-05-04 22:21 60.19229 11.11795 1097 ft 126 kts 15°
2026-05-04 22:21 60.20047 11.12367 1583 ft 127 kts 14°
2026-05-04 22:21 60.20947 11.13010 1900 ft 148 kts 15°
2026-05-04 22:21 60.21972 11.13752 2180 ft 169 kts 14°
2026-05-04 22:22 60.23158 11.14555 2454 ft 192 kts 15°
2026-05-04 22:22 60.24350 11.16057 2749 ft 212 kts 44°
2026-05-04 22:22 60.25294 11.18387 3356 ft 218 kts 49°
2026-05-04 22:22 60.26216 11.20872 3736 ft 223 kts 50°
2026-05-04 22:23 60.27139 11.23394 3947 ft 224 kts 50°
2026-05-04 22:23 60.28064 11.25918 3998 ft 224 kts 50°
2026-05-04 22:23 60.28986 11.28439 3999 ft 223 kts 50°
2026-05-04 22:23 60.29906 11.30958 4002 ft 223 kts 50°
2026-05-04 22:24 60.30827 11.33478 4002 ft 223 kts 50°
2026-05-04 22:24 60.31752 11.36002 4003 ft 223 kts 51°
2026-05-04 22:24 60.32400 11.38831 3998 ft 227 kts 81°
2026-05-04 22:24 60.32395 11.42039 3997 ft 230 kts 93°
2026-05-04 22:25 60.32230 11.45250 3998 ft 230 kts 95°
2026-05-04 22:25 60.32045 11.48462 4002 ft 231 kts 95°
2026-05-04 22:25 60.31856 11.51685 3998 ft 231 kts 95°
2026-05-04 22:25 60.31673 11.54871 3990 ft 231 kts 95°
2026-05-04 22:26 60.31405 11.58067 3986 ft 232 kts 111°
2026-05-04 22:26 60.30472 11.60647 3990 ft 229 kts 146°
2026-05-04 22:26 60.29033 11.61749 3992 ft 216 kts 181°
2026-05-04 22:26 60.27558 11.61480 4002 ft 213 kts 193°
2026-05-04 22:27 60.26107 11.60919 3993 ft 212 kts 195°
2026-05-04 22:27 60.24659 11.60319 3995 ft 213 kts 195°
2026-05-04 22:27 60.23212 11.59715 3994 ft 213 kts 195°
2026-05-04 22:27 60.21757 11.59107 3994 ft 213 kts 195°
2026-05-04 22:28 60.20309 11.58502 3996 ft 212 kts 195°
2026-05-04 22:28 60.18866 11.57896 3996 ft 212 kts 195°
2026-05-04 22:28 60.17423 11.57293 3998 ft 212 kts 195°
2026-05-04 22:28 60.15994 11.56700 3997 ft 212 kts 195°
2026-05-04 22:29 60.14554 11.56099 3995 ft 211 kts 195°
2026-05-04 22:29 60.13113 11.55499 3994 ft 211 kts 195°
2026-05-04 22:29 60.11675 11.54904 4000 ft 211 kts 195°
2026-05-04 22:29 60.10235 11.54312 3999 ft 211 kts 195°
2026-05-04 22:30 60.08792 11.53718 3998 ft 211 kts 195°
2026-05-04 22:30 60.07358 11.53127 3997 ft 210 kts 195°
2026-05-04 22:30 60.05922 11.52536 3995 ft 210 kts 195°
2026-05-04 22:30 60.04487 11.51951 3998 ft 210 kts 195°
2026-05-04 22:31 60.03074 11.51375 3996 ft 210 kts 195°
2026-05-04 22:31 60.01641 11.50789 3994 ft 209 kts 195°
2026-05-04 22:31 60.00214 11.50209 3994 ft 209 kts 195°
2026-05-04 22:31 59.98787 11.49631 3999 ft 209 kts 195°
2026-05-04 22:32 59.97364 11.49056 3996 ft 208 kts 195°
2026-05-04 22:32 59.95942 11.48483 3994 ft 209 kts 195°
2026-05-04 22:32 59.94585 11.47610 3983 ft 199 kts 216°
2026-05-04 22:32 59.93648 11.45793 3977 ft 182 kts 242°
2026-05-04 22:33 59.93252 11.43477 3945 ft 176 kts 266°
2026-05-04 22:33 59.93385 11.41068 3950 ft 175 kts 283°
2026-05-04 22:33 59.93677 11.38700 3953 ft 176 kts 283°
2026-05-04 22:33 59.93962 11.36355 3954 ft 176 kts 283°
2026-05-04 22:34 59.94251 11.33971 3953 ft 177 kts 282°
2026-05-04 22:34 59.94542 11.31587 3954 ft 177 kts 283°
2026-05-04 22:34 59.94834 11.29202 3944 ft 177 kts 283°
2026-05-04 22:34 59.95123 11.26816 3896 ft 177 kts 283°
2026-05-04 22:35 59.95412 11.24428 3842 ft 177 kts 282°
2026-05-04 22:35 59.95700 11.22050 3786 ft 176 kts 282°
2026-05-04 22:35 59.95986 11.19677 3764 ft 176 kts 282°
2026-05-04 22:35 59.96270 11.17291 3759 ft 177 kts 282°
2026-05-04 22:36 59.96555 11.14892 3767 ft 178 kts 282°
2026-05-04 22:36 59.96842 11.12491 3763 ft 177 kts 282°
2026-05-04 22:36 59.97128 11.10102 3765 ft 177 kts 282°
2026-05-04 22:36 59.97415 11.07714 3763 ft 177 kts 282°
2026-05-04 22:37 59.97701 11.05320 3764 ft 177 kts 282°
2026-05-04 22:37 59.98122 11.03018 3758 ft 179 kts 303°
2026-05-04 22:37 59.99058 11.01380 3758 ft 184 kts 332°
2026-05-04 22:37 60.00307 11.00924 3756 ft 191 kts
2026-05-04 22:38 60.01608 11.01584 3765 ft 194 kts 13°
2026-05-04 22:38 60.02904 11.02347 3709 ft 192 kts 12°
2026-05-04 22:38 60.04158 11.03073 3535 ft 183 kts 12°
2026-05-04 22:38 60.05342 11.03753 3287 ft 171 kts 12°
2026-05-04 22:39 60.06450 11.04389 3060 ft 159 kts 11°
2026-05-04 22:39 60.07487 11.04983 2851 ft 152 kts 12°
2026-05-04 22:39 60.08159 11.05367 2713 ft 151 kts 12°
2026-05-04 22:39 60.09167 11.05943 2511 ft 150 kts 12°
2026-05-04 22:40 60.10173 11.06520 2297 ft 150 kts 12°
2026-05-04 22:40 60.11503 11.07283 2023 ft 150 kts 13°
2026-05-04 22:40 60.12179 11.07671 1879 ft 150 kts 13°
2026-05-04 22:40 60.13184 11.08249 1666 ft 150 kts 13°
2026-05-04 22:41 60.14183 11.08824 1444 ft 148 kts 13°
2026-05-04 22:41 60.15165 11.09389 1222 ft 145 kts 13°
2026-05-04 22:41 60.16126 11.09937 1012 ft 143 kts 13°
2026-05-04 22:41 60.17061 11.10476 828 ft 141 kts 13°
2026-05-04 22:42 60.17996 11.11031 686 ft 130 kts 14°
2026-05-04 22:42 60.18709 11.11424 683 ft 74 kts 15°
2026-05-04 22:42 60.19080 11.11639 684 ft 35 kts 15°
2026-05-04 22:42 60.19241 11.11698 687 ft 18 kts 359°
2026-05-04 22:43 60.19346 11.11650 685 ft 13 kts 322°
2026-05-04 22:43 60.19381 11.11463 685 ft 16 kts 266°
2026-05-04 22:43 60.19285 11.11379 684 ft 17 kts 193°
2026-05-04 22:43 60.19164 11.11308 686 ft 19 kts 195°
2026-05-04 22:44 60.19139 11.11147 680 ft 15 kts 287°
2026-05-04 22:44 60.19172 11.10923 682 ft 18 kts 284°
2026-05-04 22:44 60.19195 11.10759 682 ft 9 kts 287°
2026-05-04 22:44 60.19235 11.10710 683 ft 6 kts 344°
2026-05-04 22:45 60.19280 11.10679 680 ft 4 kts 338°
2026-05-04 22:45 60.19293 11.10668 683 ft 0 kts 338°